TimeCST,TemperatureF,Dew PointF,Humidity,Sea Level PressureIn,VisibilityMPH,Wind Direction,Wind SpeedMPH,Gust SpeedMPH,PrecipitationIn,Events,Conditions,WindDirDegrees,DateUTC
12:15 AM,12.2,8.6,85,30.36,10.0,Calm,Calm,-,N/A,,Clear,0,2012-11-24 06:15:00
12:34 AM,14.0,10.4,86,30.34,10.0,Calm,Calm,-,N/A,,Clear,0,2012-11-24 06:34:00
12:55 AM,14.0,10.4,86,30.33,10.0,Calm,Calm,-,N/A,,Clear,0,2012-11-24 06:55:00
1:14 AM,12.2,8.6,85,30.32,10.0,Calm,Calm,-,N/A,,Scattered Clouds,0,2012-11-24 07:14:00
1:35 AM,14.0,10.4,86,30.32,10.0,Calm,Calm,-,N/A,,Mostly Cloudy,0,2012-11-24 07:35:00
2:14 AM,14.0,10.4,86,30.32,10.0,Calm,Calm,-,N/A,,Clear,0,2012-11-24 08:14:00
2:35 AM,14.0,10.4,86,30.30,10.0,Calm,Calm,-,N/A,,Scattered Clouds,0,2012-11-24 08:35:00
2:55 AM,14.0,10.4,86,30.29,10.0,Calm,Calm,-,N/A,,Scattered Clouds,0,2012-11-24 08:55:00
3:14 AM,15.8,10.4,79,30.29,10.0,Calm,Calm,-,N/A,,Mostly Cloudy,0,2012-11-24 09:14:00
3:35 AM,15.8,10.4,79,30.28,10.0,Calm,Calm,-,N/A,,Scattered Clouds,0,2012-11-24 09:35:00
3:55 AM,15.8,10.4,79,30.27,10.0,Calm,Calm,-,N/A,,Clear,0,2012-11-24 09:55:00
4:14 AM,15.8,10.4,79,30.26,10.0,Calm,Calm,-,N/A,,Clear,0,2012-11-24 10:14:00
4:35 AM,17.6,12.2,79,30.26,10.0,South,3.5,-,N/A,,Scattered Clouds,170,2012-11-24 10:35:00
4:55 AM,17.6,12.2,79,30.25,10.0,South,4.6,-,N/A,,Mostly Cloudy,180,2012-11-24 10:55:00
5:14 AM,17.6,12.2,79,30.24,10.0,SE,4.6,-,N/A,,Scattered Clouds,140,2012-11-24 11:14:00
5:35 AM,17.6,12.2,79,30.24,10.0,ESE,4.6,-,N/A,,Mostly Cloudy,120,2012-11-24 11:35:00
6:14 AM,19.4,14.0,80,30.22,10.0,SSE,6.9,-,N/A,,Scattered Clouds,150,2012-11-24 12:14:00
6:34 AM,19.4,14.0,80,30.22,10.0,SSE,6.9,-,N/A,,Scattered Clouds,150,2012-11-24 12:34:00
6:55 AM,19.4,14.0,80,30.21,10.0,SE,6.9,-,N/A,,Scattered Clouds,140,2012-11-24 12:55:00
7:14 AM,19.4,14.0,80,30.20,10.0,SSE,8.1,-,N/A,,Scattered Clouds,150,2012-11-24 13:14:00
7:35 AM,19.4,14.0,80,30.17,10.0,SSE,8.1,-,N/A,,Mostly Cloudy,150,2012-11-24 13:35:00
7:55 AM,19.4,14.0,80,30.15,10.0,SSE,9.2,-,N/A,,Scattered Clouds,150,2012-11-24 13:55:00
8:14 AM,21.2,14.0,74,30.17,10.0,SSE,10.4,-,N/A,,Clear,150,2012-11-24 14:14:00
8:35 AM,21.2,14.0,74,30.16,10.0,SSE,6.9,-,N/A,,Mostly Cloudy,150,2012-11-24 14:35:00
8:55 AM,21.2,14.0,74,30.14,10.0,SSE,12.7,-,N/A,,Overcast,160,2012-11-24 14:55:00
9:14 AM,23.0,14.0,68,30.13,10.0,SSE,10.4,-,N/A,,Overcast,150,2012-11-24 15:14:00
9:35 AM,23.0,15.8,74,30.12,10.0,SSE,12.7,-,N/A,,Overcast,150,2012-11-24 15:35:00
9:55 AM,24.8,15.8,69,30.12,10.0,SSE,10.4,-,N/A,,Overcast,160,2012-11-24 15:55:00
10:14 AM,26.6,15.8,64,30.11,10.0,SSE,13.8,-,N/A,,Overcast,160,2012-11-24 16:14:00
10:35 AM,26.6,15.8,64,30.10,10.0,SSE,13.8,18.4,N/A,,Overcast,150,2012-11-24 16:35:00
10:55 AM,28.4,15.8,59,30.08,10.0,SSE,17.3,-,N/A,,Scattered Clouds,150,2012-11-24 16:55:00
11:14 AM,30.2,15.8,55,30.05,10.0,SSE,15.0,19.6,N/A,,Clear,160,2012-11-24 17:14:00
11:35 AM,30.2,15.8,55,30.02,10.0,SSE,17.3,-,N/A,,Clear,160,2012-11-24 17:35:00
11:55 AM,32.0,15.8,51,30.00,10.0,SSE,18.4,-,N/A,,Clear,160,2012-11-24 17:55:00
12:14 PM,32.0,15.8,51,29.97,10.0,SSE,18.4,25.3,N/A,,Clear,160,2012-11-24 18:14:00
12:35 PM,33.8,15.8,48,29.95,10.0,South,19.6,25.3,N/A,,Clear,170,2012-11-24 18:35:00
12:55 PM,33.8,15.8,48,29.93,10.0,South,19.6,-,N/A,,Clear,180,2012-11-24 18:55:00
1:14 PM,35.6,15.8,44,29.92,10.0,South,18.4,25.3,N/A,,Clear,180,2012-11-24 19:14:00
1:35 PM,35.6,15.8,44,29.91,10.0,South,25.3,28.8,N/A,,Scattered Clouds,190,2012-11-24 19:35:00
1:54 PM,37.4,15.8,41,29.90,10.0,South,23.0,26.5,N/A,,Scattered Clouds,190,2012-11-24 19:54:00
2:15 PM,37.4,15.8,41,29.88,10.0,SSW,23.0,-,N/A,,Scattered Clouds,200,2012-11-24 20:15:00
2:35 PM,37.4,14.0,38,29.88,10.0,South,20.7,26.5,N/A,,Scattered Clouds,190,2012-11-24 20:35:00
2:54 PM,37.4,14.0,38,29.87,10.0,South,20.7,26.5,N/A,,Scattered Clouds,190,2012-11-24 20:54:00
3:15 PM,37.4,14.0,38,29.87,10.0,SSW,18.4,24.2,N/A,,Clear,200,2012-11-24 21:15:00
3:34 PM,37.4,15.8,41,29.86,10.0,SSW,17.3,-,N/A,,Clear,210,2012-11-24 21:34:00
3:55 PM,35.6,15.8,44,29.85,10.0,SSW,15.0,-,N/A,,Clear,210,2012-11-24 21:55:00
4:14 PM,33.8,15.8,48,29.85,10.0,SSW,12.7,-,N/A,,Clear,200,2012-11-24 22:14:00
4:34 PM,33.8,15.8,48,29.85,10.0,South,10.4,-,N/A,,Clear,190,2012-11-24 22:34:00
4:55 PM,32.0,15.8,51,29.83,10.0,South,9.2,-,N/A,,Clear,190,2012-11-24 22:55:00
5:14 PM,32.0,17.6,55,29.83,10.0,South,9.2,-,N/A,,Mostly Cloudy,190,2012-11-24 23:14:00
5:34 PM,32.0,17.6,55,29.83,10.0,South,8.1,-,N/A,,Mostly Cloudy,190,2012-11-24 23:34:00
5:55 PM,32.0,17.6,55,29.84,10.0,SSW,5.8,-,N/A,,Scattered Clouds,200,2012-11-24 23:55:00
6:14 PM,30.2,17.6,60,29.83,10.0,South,8.1,-,N/A,,Clear,190,2012-11-25 00:14:00
6:34 PM,32.0,17.6,55,29.82,10.0,South,10.4,-,N/A,,Scattered Clouds,190,2012-11-25 00:34:00
6:55 PM,32.0,17.6,55,29.82,10.0,SSW,5.8,-,N/A,,Mostly Cloudy,210,2012-11-25 00:55:00
7:14 PM,32.0,17.6,55,29.83,10.0,SW,4.6,-,N/A,,Scattered Clouds,220,2012-11-25 01:14:00
7:35 PM,32.0,17.6,55,29.83,10.0,SSW,5.8,-,N/A,,Overcast,210,2012-11-25 01:35:00
7:55 PM,32.0,19.4,60,29.83,10.0,SW,4.6,-,N/A,,Mostly Cloudy,230,2012-11-25 01:55:00
8:14 PM,32.0,19.4,60,29.82,10.0,Calm,Calm,-,N/A,,Scattered Clouds,0,2012-11-25 02:14:00
8:35 PM,32.0,19.4,60,29.83,10.0,Calm,Calm,-,N/A,,Scattered Clouds,0,2012-11-25 02:35:00
8:54 PM,32.0,19.4,60,29.82,10.0,Calm,Calm,-,N/A,,Clear,0,2012-11-25 02:54:00
9:15 PM,32.0,19.4,60,29.81,10.0,Calm,Calm,-,N/A,,Clear,0,2012-11-25 03:15:00
9:34 PM,32.0,19.4,60,29.81,10.0,Calm,Calm,-,N/A,,Scattered Clouds,0,2012-11-25 03:34:00
9:54 PM,32.0,19.4,60,29.82,10.0,Calm,Calm,-,N/A,,Scattered Clouds,0,2012-11-25 03:54:00
10:15 PM,32.0,19.4,60,29.82,10.0,WNW,5.8,-,N/A,,Clear,300,2012-11-25 04:15:00
10:35 PM,32.0,19.4,60,29.82,10.0,NW,8.1,-,N/A,,Clear,310,2012-11-25 04:35:00
10:54 PM,33.8,21.2,60,29.84,10.0,NW,6.9,-,N/A,,Clear,320,2012-11-25 04:54:00
11:15 PM,33.8,21.2,60,29.84,10.0,NW,8.1,-,N/A,,Clear,320,2012-11-25 05:15:00
11:34 PM,32.0,21.2,64,29.84,10.0,NW,3.5,-,N/A,,Clear,320,2012-11-25 05:34:00
11:55 PM,32.0,21.2,64,29.85,10.0,NW,3.5,-,N/A,,Clear,320,2012-11-25 05:55:00